EW2974 Weather Reports


Display with metric or nautical units.
time (UTC)temp
F
wind
direction
speed
MPH
gust
MPH
rain 1hr
in
rain 24hr
in
rain mn
in
humidity
%
barometer
mb
20260504224904 72 198 2.0 17.0 0.00 0.01 0.01 52 1002.4
20260504224404 72 160 0.0 16.0 0.00 0.01 0.01 52 1002.5
20260504223905 72 268 0.0 14.0 0.00 0.01 0.01 52 1002.5
20260504223405 72 264 1.0 8.0 0.00 0.01 0.01 51 1002.6
20260504222904 72 224 4.0 17.0 0.00 0.01 0.01 51 1002.8
20260504222404 72 255 1.0 14.0 0.00 0.01 0.01 51 1002.8
20260504221905 71 264 5.0 14.0 0.00 0.01 0.01 51 1002.8
20260504221404 71 237 6.0 23.0 0.00 0.01 0.01 52 1002.9
20260504220905 71 250 5.0 16.0 0.00 0.01 0.01 51 1002.9
20260504215905 73 268 1.0 18.0 0.00 0.01 0.01 50 1002.9
20260504215405 73 149 1.0 6.0 0.00 0.01 0.01 49 1002.8
20260504214905 73 189 3.0 14.0 0.00 0.01 0.01 48 1002.7
20260504214405 73 195 3.0 17.0 0.00 0.01 0.01 49 1002.7
20260504213906 72 252 6.0 13.0 0.00 0.01 0.01 50 1002.9
20260504213405 73 254 6.0 9.0 0.00 0.01 0.01 47 1003.0
20260504212404 73 218 0.0 5.0 0.00 0.01 0.01 50 1003.0
20260504211405 72 236 4.0 14.0 0.00 0.01 0.01 47 1003.1
20260504210905 73 217 3.0 14.0 0.00 0.01 0.01 47 1003.0
20260504205404 74 218 8.0 14.0 0.00 0.01 0.01 45 1003.1
20260504204905 74 268 3.0 14.0 0.00 0.01 0.01 45 1003.0
20260504204405 74 263 5.0 9.0 0.00 0.01 0.01 46 1003.1
20260504203905 73 252 3.0 12.0 0.00 0.01 0.01 46 1003.0
20260504203404 74 205 1.0 14.0 0.00 0.01 0.01 44 1002.9
20260504202905 74 232 7.0 17.0 0.00 0.01 0.01 45 1003.0
20260504202405 74 237 3.0 16.0 0.00 0.01 0.01 45 1003.0
20260504201905 74 242 3.0 17.0 0.00 0.01 0.01 42 1003.1
20260504201404 74 214 2.0 12.0 0.00 0.01 0.01 43 1003.1
20260504200405 74 224 5.0 17.0 0.00 0.01 0.01 44 1003.2
20260504195905 74 267 2.0 12.0 0.00 0.01 0.01 46 1003.3
20260504194905 74 188 4.0 16.0 0.00 0.01 0.01 44 1003.3
20260504194405 74 268 6.0 18.0 0.00 0.01 0.01 43 1003.6
20260504193405 74 213 0.0 9.0 0.00 0.01 0.01 46 1003.7
20260504192904 74 275 6.0 14.0 0.00 0.01 0.01 45 1003.8
20260504192404 73 231 5.0 12.0 0.00 0.01 0.01 47 1003.9
20260504191404 73 213 7.0 22.0 0.00 0.01 0.01 46 1004.0
20260504190905 74 242 1.0 14.0 0.00 0.01 0.01 46 1004.0
20260504185905 74 215 4.0 25.0 0.00 0.01 0.01 44 1004.1
20260504185405 75 176 1.0 14.0 0.00 0.01 0.01 46 1004.0
20260504184904 74 221 2.0 16.0 0.00 0.01 0.01 45 1004.1
20260504184405 74 190 3.0 21.0 0.00 0.01 0.01 44 1004.2
20260504183904 74 216 5.0 14.0 0.00 0.01 0.01 46 1004.4
20260504183404 74 237 1.0 14.0 0.00 0.01 0.01 46 1004.4
20260504182904 74 192 7.0 14.0 0.00 0.01 0.01 44 1004.4
20260504182404 73 225 4.0 18.0 0.00 0.01 0.01 43 1004.5
20260504181904 73 187 5.0 17.0 0.00 0.01 0.01 45 1004.7
20260504181405 73 223 6.0 16.0 0.00 0.01 0.01 44 1004.7
20260504180904 73 263 6.0 12.0 0.00 0.01 0.01 45 1004.7
20260504180405 73 223 4.0 22.0 0.00 0.01 0.01 43 1004.8
20260504175904 73 267 3.0 22.0 0.00 0.01 0.01 46 1004.8
20260504174904 73 242 3.0 13.0 0.00 0.01 0.01 46 1004.9
20260504173904 73 250 2.0 17.0 0.00 0.01 0.01 46 1005.0
20260504173404 72 169 6.0 16.0 0.00 0.01 0.01 49 1005.0
20260504172904 72 187 3.0 12.0 0.00 0.01 0.01 48 1005.1
20260504172405 72 240 3.0 17.0 0.00 0.01 0.01 46 1005.1
20260504171904 72 140 5.0 9.0 0.00 0.01 0.01 48 1005.0
20260504171405 72 174 12.0 21.0 0.00 0.01 0.01 46 1005.1
20260504170904 72 187 6.0 14.0 0.00 0.01 0.01 44 1005.2
20260504170404 72 230 1.0 9.0 0.00 0.01 0.01 47 1005.1
20260504160405 68 252 6.0 18.0 0.00 0.01 0.01 50 1006.0
20260504150905 65 245 5.0 14.0 0.01 0.01 0.01 54 1006.6
20260504150404 64 166 4.0 12.0 0.01 0.01 0.01 53 1006.9
20260504140905 60 168 1.0 12.0 0.00 0.00 0.00 54 1007.3
20260504140404 60 219 2.0 9.0 0.00 0.00 0.00 55 1007.2
20260504130405 56 219 6.0 13.0 0.00 0.00 0.00 58 1007.9
20260504110404 49 207 0.0 5.0 0.00 0.00 0.00 66 1007.7
20260504100404 48 220 0.0 0.0 0.00 0.00 0.00 68 1007.6
20260504081905 49 249 1.0 5.0 0.00 0.00 0.00 68 1008.3
20260504080404 49 240 1.0 8.0 0.00 0.00 0.00 68 1008.4
20260504070405 49 244 1.0 3.0 0.00 0.00 0.00 65 1009.2
20260504050404 50 254 0.0 0.0 0.00 0.00 0.00 64 1010.4
20260504045404 50 257 0.0 0.0 0.00 0.00 0.00 63 1010.5
20260504044904 50 257 0.0 0.0 0.00 0.00 0.00 64 1010.5
20260504044405 50 257 0.0 0.0 0.00 0.00 0.00 65 1010.4
20260504043905 50 257 0.0 0.0 0.00 0.00 0.00 64 1010.4
20260504042904 51 257 0.0 0.0 0.00 0.00 0.00 63 1010.5
20260504042404 51 257 0.0 0.0 0.00 0.00 0.00 63 1010.4
20260504041904 51 257 0.0 0.0 0.00 0.00 0.00 61 1010.4
20260504041404 51 257 0.0 0.0 0.00 0.00 0.00 61 1010.5
20260504040404 51 257 0.0 0.0 0.00 0.00 0.00 61 1010.7
20260504035904 51 257 0.0 0.0 0.00 0.00 0.00 61 1010.8
20260504035405 51 257 0.0 0.0 0.00 0.00 0.00 61 1011.0
20260504034404 50 257 0.0 1.0 0.00 0.00 0.00 60 1011.1
20260504033904 50 258 0.0 0.0 0.00 0.00 0.00 61 1011.1
20260504033404 50 257 0.0 0.0 0.00 0.00 0.00 60 1011.1
20260504032904 49 258 0.0 0.0 0.00 0.00 0.00 61 1011.2
20260504031904 49 257 0.0 0.0 0.00 0.00 0.00 59 1011.5
20260504031405 49 257 0.0 0.0 0.00 0.00 0.00 59 1011.6
20260504030904 49 257 0.0 0.0 0.00 0.00 0.00 60 1011.6
20260504025904 48 246 1.0 5.0 0.00 0.00 0.00 61 1011.6
20260504025406 47 207 1.0 6.0 0.00 0.00 0.00 66 1011.7
20260504024904 47 215 0.0 0.0 0.00 0.00 0.00 67 1011.6
20260504024404 47 215 0.0 0.0 0.00 0.00 0.00 70 1011.4
20260504023904 47 215 0.0 0.0 0.00 0.00 0.00 70 1011.3
20260504023405 48 215 0.0 0.0 0.00 0.00 0.00 68 1011.3
20260504022905 48 215 0.0 0.0 0.00 0.00 0.00 67 1011.3
20260504021904 49 215 0.0 0.0 0.00 0.00 0.00 69 1011.2
20260504021404 49 215 0.0 0.0 0.00 0.00 0.00 67 1011.2
20260504020904 50 215 0.0 0.0 0.00 0.00 0.00 66 1011.3
20260504020404 50 215 0.0 0.0 0.00 0.00 0.00 64 1011.4
20260504015904 51 215 0.0 0.0 0.00 0.00 0.00 64 1011.3
20260504014904 51 215 0.0 0.0 0.00 0.00 0.00 60 1011.3
20260504014404 52 215 0.0 0.0 0.00 0.00 0.00 52 1011.3
20260504013904 52 215 0.0 0.0 0.00 0.00 0.00 52 1011.2
20260504012904 52 215 0.0 0.0 0.00 0.00 0.00 51 1011.1
20260504012404 53 215 0.0 0.0 0.00 0.00 0.00 51 1011.1
20260504011905 53 215 0.0 0.0 0.00 0.00 0.00 51 1011.1
20260504011404 53 215 0.0 3.0 0.00 0.00 0.00 50 1011.1
20260504010904 54 213 0.0 0.0 0.00 0.00 0.00 49 1011.1
20260504005904 54 212 0.0 0.0 0.00 0.00 0.00 48 1011.2
20260504005405 55 212 0.0 0.0 0.00 0.00 0.00 48 1011.2
20260504004904 55 207 2.0 9.0 0.00 0.00 0.00 47 1011.2
20260504003404 56 211 0.0 0.0 0.00 0.00 0.00 47 1011.1
20260504002904 56 210 1.0 5.0 0.00 0.00 0.00 46 1011.1
20260504001905 56 214 0.0 5.0 0.00 0.00 0.00 46 1011.2
20260504001404 57 246 1.0 8.0 0.00 0.00 0.00 45 1011.1
20260504000905 57 278 3.0 6.0 0.00 0.00 0.00 44 1011.1
20260504000404 57 259 2.0 6.0 0.00 0.00 0.00 44 1011.3
20260503235904 57 214 3.0 14.0 0.00 0.00 0.00 44 1011.3
20260503235404 57 230 2.0 9.0 0.00 0.00 0.00 43 1011.3
20260503234904 57 239 1.0 6.0 0.00 0.00 0.00 44 1011.3
20260503234404 57 245 2.0 6.0 0.00 0.00 0.00 43 1011.3
20260503233905 57 253 0.0 5.0 0.00 0.00 0.00 44 1011.4
20260503233404 57 271 2.0 6.0 0.00 0.00 0.00 43 1011.4
20260503232905 58 265 0.0 0.0 0.00 0.00 0.00 44 1011.3
20260503231905 58 254 1.0 5.0 0.00 0.00 0.00 43 1011.3
20260503231404 58 251 2.0 8.0 0.00 0.00 0.00 43 1011.3
20260503230905 58 233 0.0 3.0 0.00 0.00 0.00 44 1011.3
20260503230404 58 260 0.0 0.0 0.00 0.00 0.00 45 1011.6
20260503225904 58 262 1.0 5.0 0.00 0.00 0.00 43 1011.6